CW7959 Weather Reports


time (UTC)temp
F
wind
direction
speed
knots
gust
knots
rain 1hr
in
rain 24hr
in
rain mn
in
humidity
%
barometer
mb
20260508163903 57 263 1.7 5.2 0.00 0.10 0.04 56 1017.6
20260508163402 57 268 2.6 7.0 0.00 0.10 0.04 55 1017.5
20260508162902 57 271 2.6 7.8 0.00 0.10 0.04 55 1017.5
20260508162404 57 265 2.6 5.2 0.00 0.10 0.04 56 1017.5
20260508161904 57 265 1.7 7.0 0.00 0.10 0.04 55 1017.5
20260508161402 57 211 0.9 5.2 0.00 0.10 0.04 56 1017.5
20260508160902 57 243 4.3 7.8 0.00 0.10 0.04 56 1017.5
20260508160403 57 277 2.6 8.7 0.00 0.10 0.04 55 1017.5
20260508155904 57 212 2.6 8.7 0.00 0.10 0.04 55 1017.5
20260508155402 57 272 2.6 8.7 0.00 0.10 0.04 55 1017.4
20260508154902 58 281 3.5 10.4 0.00 0.10 0.04 56 1017.4
20260508154404 57 281 2.6 5.2 0.00 0.10 0.04 55 1017.4
20260508153903 57 284 1.7 7.0 0.00 0.10 0.04 57 1017.4
20260508153404 57 267 1.7 6.1 0.00 0.10 0.04 57 1017.3
20260508152902 57 282 1.7 7.0 0.00 0.10 0.04 58 1017.1
20260508152403 57 256 2.6 7.0 0.00 0.10 0.04 58 1017.1
20260508151403 57 277 1.7 6.1 0.00 0.10 0.04 60 1017.2
20260508150902 56 282 1.7 7.0 0.00 0.10 0.04 61 1017.1
20260508150403 56 286 2.6 8.7 0.00 0.10 0.04 60 1017.0
20260508145902 57 292 1.7 7.0 0.00 0.10 0.04 58 1017.1
20260508145404 57 254 2.6 8.7 0.00 0.10 0.04 60 1017.1
20260508144903 56 242 1.7 5.2 0.00 0.10 0.04 63 1017.0
20260508144402 56 276 2.6 7.0 0.00 0.10 0.04 64 1017.0
20260508143403 56 242 1.7 6.1 0.00 0.10 0.04 61 1016.9
20260508142903 57 234 1.7 5.2 0.00 0.10 0.04 61 1016.8
20260508142402 57 234 1.7 7.0 0.00 0.10 0.04 61 1016.9
20260508141902 57 263 4.3 6.1 0.00 0.10 0.04 61 1016.9
20260508140902 57 323 2.6 8.7 0.00 0.10 0.04 61 1016.9
20260508140403 57 262 1.7 6.1 0.00 0.10 0.04 63 1016.9
20260508135904 57 275 1.7 7.8 0.00 0.10 0.04 65 1016.7
20260508135404 57 316 2.6 7.8 0.00 0.10 0.04 64 1016.7
20260508133902 55 297 2.6 5.2 0.00 0.10 0.04 68 1016.7
20260508133404 55 277 2.6 7.0 0.00 0.10 0.04 66 1016.7
20260508132903 55 313 2.6 8.7 0.00 0.10 0.04 65 1016.5
20260508132402 55 291 0.9 5.2 0.00 0.10 0.04 65 1016.6
20260508131903 55 313 3.5 7.8 0.00 0.10 0.04 66 1016.5
20260508131404 56 264 2.6 7.0 0.00 0.10 0.04 66 1016.5
20260508130904 56 220 3.5 7.8 0.00 0.10 0.04 67 1016.5
20260508130403 56 227 0.9 2.6 0.00 0.10 0.04 68 1016.5
20260508125903 56 227 2.6 6.1 0.00 0.10 0.04 65 1016.3
20260508125404 56 211 3.5 6.1 0.00 0.10 0.04 67 1016.3
20260508124403 56 214 3.5 7.0 0.00 0.10 0.04 71 1016.1
20260508123903 56 217 0.9 5.2 0.00 0.10 0.04 72 1016.1
20260508123402 55 217 2.6 6.1 0.00 0.10 0.04 70 1016.1
20260508122904 54 214 1.7 2.6 0.01 0.10 0.04 76 1016.1
20260508122403 54 214 2.6 5.2 0.01 0.10 0.04 77 1016.1
20260508121904 53 214 2.6 5.2 0.02 0.10 0.04 78 1016.2
20260508121404 53 214 1.7 7.8 0.02 0.10 0.04 78 1016.1
20260508120403 52 215 2.6 7.0 0.02 0.10 0.04 83 1016.2
20260508115402 51 215 0.9 5.2 0.02 0.10 0.04 84 1016.1
20260508114904 50 214 4.3 7.8 0.03 0.10 0.04 83 1016.1
20260508114403 50 215 2.6 7.0 0.03 0.10 0.04 84 1016.1
20260508113905 50 215 3.5 7.8 0.03 0.10 0.04 84 1016.0
20260508113403 50 219 1.7 6.1 0.03 0.10 0.04 83 1016.0
20260508112904 50 219 4.3 7.0 0.02 0.09 0.03 82 1015.9
20260508112403 51 221 4.3 7.0 0.02 0.09 0.03 82 1015.9
20260508111904 51 261 0.0 8.7 0.02 0.09 0.02 81 1015.9
20260508111404 52 221 2.6 7.0 0.02 0.09 0.02 81 1015.9
20260508110903 51 214 4.3 7.0 0.01 0.08 0.02 80 1015.7
20260508110404 51 214 1.7 5.2 0.01 0.08 0.02 78 1015.6
20260508105903 51 214 4.3 7.8 0.01 0.08 0.02 77 1015.5
20260508105403 52 214 5.2 10.4 0.01 0.08 0.02 77 1015.4
20260508104903 52 209 4.3 10.4 0.00 0.07 0.01 75 1015.3
20260508104403 52 212 5.2 7.8 0.00 0.07 0.01 75 1015.2
20260508103404 51 215 6.1 10.4 0.00 0.07 0.01 78 1015.0
20260508102903 51 211 5.2 8.7 0.00 0.07 0.01 78 1015.0
20260508102403 51 209 4.3 6.1 0.00 0.07 0.01 78 1015.0
20260508101902 51 208 4.3 7.0 0.00 0.07 0.01 79 1015.0
20260508101404 51 206 2.6 7.8 0.00 0.07 0.01 77 1014.9
20260508100902 51 215 6.1 11.3 0.00 0.07 0.01 75 1014.9
20260508100402 51 212 6.1 12.2 0.00 0.07 0.01 73 1014.8
20260508095903 52 207 6.1 11.3 0.00 0.07 0.01 73 1014.7
20260508095403 52 212 7.0 11.3 0.00 0.07 0.01 74 1014.7
20260508094902 52 216 6.1 10.4 0.00 0.07 0.01 74 1014.6
20260508094402 52 213 4.3 10.4 0.00 0.07 0.01 77 1014.5
20260508093903 52 213 6.1 10.4 0.00 0.07 0.01 76 1014.4
20260508093404 52 211 4.3 10.4 0.00 0.07 0.01 76 1014.5
20260508092903 51 210 5.2 10.4 0.00 0.07 0.01 77 1014.4
20260508092405 51 199 5.2 10.4 0.00 0.07 0.01 80 1014.4
20260508091903 50 216 5.2 10.4 0.00 0.07 0.01 81 1014.3
20260508090402 48 212 1.7 7.0 0.00 0.07 0.01 88 1014.2
20260508085902 48 211 0.0 0.0 0.00 0.07 0.01 88 1014.4
20260508085403 48 211 0.0 2.6 0.00 0.07 0.01 86 1014.2
20260508084903 49 211 0.0 4.3 0.00 0.07 0.01 86 1014.3
20260508084403 50 211 1.7 5.2 0.00 0.07 0.01 83 1014.2
20260508083403 51 210 3.5 8.7 0.00 0.07 0.01 80 1014.0
20260508082904 50 204 3.5 7.8 0.00 0.07 0.01 82 1013.9
20260508082404 50 194 4.3 7.8 0.00 0.07 0.01 82 1013.9
20260508081404 49 238 1.7 6.1 0.00 0.07 0.01 82 1013.8
20260508080904 49 240 1.7 6.1 0.00 0.07 0.01 83 1013.8
20260508075904 49 203 4.3 8.7 0.00 0.07 0.01 83 1013.7
20260508074902 49 212 2.6 7.0 0.00 0.07 0.01 85 1013.6
20260508074404 49 212 4.3 7.8 0.00 0.07 0.01 86 1013.6
20260508073402 48 214 5.2 8.7 0.00 0.07 0.01 87 1013.4
20260508072904 48 211 4.3 8.7 0.00 0.07 0.01 88 1013.4
20260508071904 48 214 3.5 7.0 0.01 0.07 0.01 89 1013.2
20260508071403 47 214 4.3 7.0 0.01 0.07 0.01 90 1013.2
20260508070903 47 215 2.6 6.1 0.01 0.07 0.01 90 1013.3
20260508070404 47 215 2.6 6.1 0.01 0.07 0.01 91 1013.2
20260508065903 47 215 4.3 7.0 0.01 0.07 0.01 91 1013.1
20260508065402 47 215 3.5 7.0 0.01 0.07 0.01 91 1013.1
20260508064903 47 215 2.6 7.8 0.01 0.07 0.01 91 1012.9
20260508064403 47 215 2.6 7.0 0.01 0.07 0.01 91 1013.0
20260508063403 47 217 1.7 5.2 0.01 0.07 0.01 92 1012.8
20260508062404 47 217 2.6 7.0 0.01 0.07 0.01 91 1012.7
20260508061903 47 215 4.3 8.7 0.00 0.06 0.00 91 1012.6
20260508061402 47 219 2.6 5.2 0.00 0.06 0.00 92 1012.6
20260508060903 47 219 0.9 4.3 0.00 0.06 0.00 92 1012.6
20260508060403 46 219 0.0 1.7 0.00 0.06 0.00 92 1012.5
20260508055403 46 219 1.7 7.0 0.00 0.06 0.00 92 1012.2
20260508054403 46 219 0.0 2.6 0.00 0.06 0.00 92 1012.1
20260508053903 46 219 0.9 6.1 0.00 0.06 0.00 92 1012.0
20260508053404 46 219 0.9 5.2 0.00 0.06 0.00 92 1012.0
20260508052404 46 219 0.9 2.6 0.00 0.06 0.00 92 1012.0
20260508051902 46 219 0.0 2.6 0.00 0.06 0.00 92 1012.0
20260508051402 46 219 0.0 0.0 0.00 0.06 0.00 92 1012.0
20260508050404 46 219 0.0 2.6 0.00 0.06 0.00 92 1011.9
20260508045903 46 219 0.0 0.0 0.00 0.06 0.00 92 1011.8
20260508045403 46 219 0.0 0.0 0.00 0.06 0.00 92 1011.7
20260508044904 46 219 0.0 2.6 0.00 0.06 0.00 92 1011.7
20260508043903 46 219 0.0 0.0 0.00 0.06 0.00 91 1011.6
20260508043403 46 219 0.0 0.0 0.00 0.06 0.00 91 1011.5
20260508042904 46 219 0.0 0.9 0.00 0.06 0.00 91 1011.5
20260508041902 46 219 0.0 0.0 0.00 0.06 0.00 91 1011.4
20260508041403 46 219 0.0 0.0 0.00 0.06 0.00 91 1011.3
20260508040903 46 219 0.0 0.0 0.00 0.06 0.00 91 1011.2
20260508040404 46 219 0.0 0.0 0.00 0.06 0.00 91 1011.2
20260508034904 47 219 0.0 0.9 0.00 0.06 0.00 91 1011.2
20260508034406 47 219 0.0 2.6 0.00 0.06 0.00 91 1011.1
20260508033903 47 219 1.7 5.2 0.00 0.06 0.00 91 1011.2
20260508033403 47 219 2.6 6.1 0.00 0.06 0.00 91 1010.9
20260508032903 47 219 1.7 7.0 0.00 0.06 0.00 91 1010.9
20260508032403 47 217 4.3 10.4 0.00 0.06 0.00 91 1010.8
20260508031903 47 214 0.0 2.6 0.00 0.06 0.00 92 1010.7
20260508031403 47 214 0.9 4.3 0.00 0.06 0.00 91 1010.8
20260508030903 46 214 0.0 6.1 0.00 0.06 0.00 91 1010.8
20260508030403 46 214 0.9 5.2 0.00 0.06 0.00 91 1010.8
20260508025903 46 214 0.9 2.6 0.00 0.06 0.00 91 1010.8
20260508025405 47 214 0.0 2.6 0.00 0.06 0.00 91 1010.8
20260508024903 47 214 0.0 2.6 0.00 0.06 0.00 91 1010.8
20260508024403 47 214 0.9 2.6 0.00 0.06 0.00 90 1010.7
20260508023903 47 214 0.0 1.7 0.00 0.06 0.00 91 1010.7
20260508023403 47 214 0.0 0.0 0.00 0.06 0.00 90 1010.6
20260508022903 47 214 0.0 1.7 0.00 0.06 0.00 90 1010.5
20260508021905 47 214 0.0 2.6 0.00 0.06 0.00 90 1010.5
20260508021404 47 214 0.9 7.0 0.00 0.06 0.00 90 1010.6
20260508020904 48 215 0.9 2.6 0.00 0.06 0.00 90 1010.6
20260508020403 48 215 0.9 7.8 0.00 0.06 0.00 90 1010.5
20260508015904 48 215 4.3 10.4 0.00 0.06 0.00 90 1010.5
20260508015403 47 215 3.5 7.0 0.00 0.06 0.00 90 1010.4
20260508014903 47 226 3.5 10.4 0.00 0.06 0.00 90 1010.4
20260508014404 47 219 2.6 7.0 0.00 0.06 0.00 90 1010.5
20260508013903 47 219 4.3 11.3 0.00 0.06 0.00 91 1010.4
20260508013403 47 220 2.6 8.7 0.00 0.06 0.00 91 1010.3
20260508012903 47 213 2.6 5.2 0.00 0.06 0.00 91 1010.3
20260508012403 48 213 0.9 6.1 0.00 0.06 0.00 91 1010.4
20260508010904 48 217 5.2 10.4 0.00 0.06 0.00 91 1010.2
20260508010404 47 211 4.3 7.0 0.00 0.06 0.00 92 1010.2
20260508005403 47 211 5.2 10.4 0.00 0.06 0.00 92 1010.3
20260508004903 47 209 4.3 10.4 0.00 0.06 0.00 92 1010.3
20260508004403 47 211 4.3 6.1 0.00 0.06 0.00 92 1010.3
20260508003905 47 211 2.6 7.0 0.00 0.06 0.00 93 1010.3
20260508002903 47 210 1.7 6.1 0.00 0.06 0.00 93 1010.3
20260508002404 47 210 2.6 6.1 0.00 0.06 0.00 93 1010.2
20260508001903 47 210 0.9 7.0 0.00 0.06 0.00 93 1010.3
20260508001403 47 209 3.5 8.7 0.00 0.06 0.00 93 1010.3
20260508000903 47 213 2.6 6.1 0.00 0.06 0.00 93 1010.2
20260508000405 47 213 5.2 10.4 0.00 0.06 0.00 93 1010.2
20260507235903 47 212 1.7 6.1 0.00 0.06 0.00 93 1010.1
20260507235404 47 212 0.9 4.3 0.01 0.06 0.00 93 1010.1
20260507234903 47 212 0.9 6.1 0.01 0.06 0.00 93 1010.1
20260507234404 47 212 0.9 7.0 0.01 0.06 0.00 93 1010.1
20260507232904 47 209 0.9 5.2 0.01 0.06 0.00 93 1010.0
20260507231404 47 209 1.7 6.1 0.01 0.06 0.00 93 1010.0
20260507230905 47 209 0.9 2.6 0.01 0.06 0.00 93 1010.0
20260507230404 47 209 0.0 1.7 0.02 0.06 0.00 93 1010.0
20260507225904 47 209 0.0 1.7 0.02 0.06 0.06 93 1010.0
20260507225405 47 209 0.0 0.9 0.03 0.06 0.06 93 1010.0
20260507224904 47 209 0.0 1.7 0.03 0.06 0.06 93 1009.9
20260507224404 47 209 0.0 2.6 0.03 0.06 0.06 93 1009.9
20260507223903 47 209 0.0 2.6 0.03 0.06 0.06 93 1010.0
20260507222903 47 209 0.0 2.6 0.04 0.06 0.06 92 1009.9
20260507222403 47 209 0.0 1.7 0.04 0.06 0.06 92 1009.9
20260507221904 48 209 0.9 2.6 0.04 0.06 0.06 92 1009.9
20260507221406 48 209 0.0 5.2 0.04 0.06 0.06 92 1009.9
20260507220904 48 209 3.5 6.1 0.04 0.06 0.06 92 1010.1
20260507215904 48 209 0.0 6.1 0.02 0.04 0.04 92 1009.9
20260507215404 48 209 1.7 4.3 0.02 0.03 0.03 92 1009.9
20260507214904 48 209 0.0 5.2 0.02 0.02 0.02 91 1009.8
20260507214404 48 209 0.9 5.2 0.02 0.02 0.02 91 1009.7
20260507213905 48 209 0.9 7.0 0.02 0.02 0.02 91 1009.8
20260507212905 48 209 0.0 2.6 0.01 0.02 0.02 91 1009.8
20260507212404 48 209 1.7 6.1 0.01 0.02 0.02 90 1009.8
20260507211904 48 209 0.9 4.3 0.01 0.02 0.02 90 1009.7
20260507211404 49 209 0.0 2.6 0.01 0.02 0.02 90 1009.7
20260507210904 49 209 0.0 1.7 0.01 0.02 0.02 90 1009.7
20260507210405 49 209 0.0 0.9 0.01 0.02 0.02 89 1009.7
20260507205905 49 209 0.9 5.2 0.01 0.02 0.02 89 1009.7
20260507205403 49 210 0.9 5.2 0.00 0.01 0.01 88 1009.7
20260507204905 49 210 3.5 6.1 0.00 0.01 0.01 87 1009.6
20260507203905 49 209 2.6 7.8 0.00 0.01 0.01 87 1009.4
20260507203404 49 214 4.3 10.4 0.00 0.01 0.01 87 1009.4
20260507202905 49 215 2.6 7.0 0.00 0.01 0.01 88 1009.4
20260507202404 49 217 3.5 7.0 0.00 0.01 0.01 88 1009.3
20260507201903 49 217 0.9 5.2 0.00 0.01 0.01 88 1009.3
20260507201404 49 217 1.7 5.2 0.00 0.01 0.01 88 1009.2
20260507200905 49 217 2.6 7.0 0.00 0.01 0.01 88 1009.3
20260507200405 49 218 2.6 10.4 0.00 0.01 0.01 88 1009.2
20260507195903 49 216 4.3 7.8 0.00 0.01 0.01 88 1009.2
20260507195403 49 214 4.3 10.4 0.00 0.01 0.01 87 1009.3
20260507194904 49 215 2.6 7.8 0.00 0.01 0.01 87 1009.3
20260507194405 49 207 2.6 12.2 0.00 0.01 0.01 87 1009.4
20260507192904 50 211 0.0 0.0 0.00 0.01 0.01 87 1009.1
20260507191904 50 211 0.0 4.3 0.00 0.01 0.01 86 1009.0
20260507191405 50 211 0.9 5.2 0.00 0.01 0.01 86 1009.1
20260507190403 50 211 1.7 4.3 0.01 0.01 0.01 86 1009.2
20260507185904 50 211 1.7 5.2 0.01 0.01 0.01 86 1009.1
20260507184405 50 215 2.6 8.7 0.01 0.01 0.01 86 1009.0
20260507183903 50 213 4.3 7.8 0.01 0.01 0.01 86 1009.0
20260507182903 50 213 4.3 7.8 0.01 0.01 0.01 86 1009.1
20260507182404 50 212 2.6 10.4 0.01 0.01 0.01 86 1009.1
20260507181903 50 208 5.2 8.7 0.01 0.01 0.01 86 1009.1
20260507181404 50 217 4.3 8.7 0.01 0.01 0.01 85 1009.1
20260507180903 51 211 0.9 8.7 0.00 0.00 0.00 84 1009.0
20260507175403 52 209 0.9 5.2 0.00 0.00 0.00 81 1008.8
20260507174904 53 209 0.0 2.6 0.00 0.00 0.00 78 1008.8
20260507174405 53 209 1.7 6.1 0.00 0.00 0.00 76 1008.8
20260507173904 53 209 4.3 6.1 0.00 0.00 0.00 75 1008.6
20260507173403 53 208 3.5 6.1 0.00 0.00 0.00 75 1008.7
20260507172903 53 208 4.3 6.1 0.00 0.00 0.00 74 1008.7
20260507172404 54 208 2.6 6.1 0.00 0.00 0.00 73 1008.7
20260507171904 54 208 3.5 6.1 0.00 0.00 0.00 72 1008.8
20260507171403 54 209 1.7 6.1 0.00 0.00 0.00 72 1008.7
20260507170904 54 209 1.7 6.1 0.00 0.00 0.00 71 1008.8
20260507170403 54 208 4.3 10.4 0.00 0.00 0.00 71 1008.7
20260507165903 54 211 4.3 10.4 0.00 0.00 0.00 74 1008.8
20260507165403 54 208 2.6 7.8 0.00 0.00 0.00 71 1008.8
20260507164903 55 221 3.5 8.7 0.00 0.00 0.00 71 1008.7
20260507164403 55 215 3.5 8.7 0.00 0.00 0.00 71 1008.7